星链-5587 (STARLINK-5587 )

导读

STARLINK-5587是美国太空探索技术公司(SpaceX)星链卫星互联网项目的卫星,于2023年7月7日发射升空。它是Starlink Group系列组网卫星之一,加入近地轨道星座,为全球提供高速低延迟互联网服务,尤其覆盖偏远、基础设施匮乏区域,推动星链全球网络的部署与服务扩容。

Basic Information
目录编号:
57245
目录名称:
STARLINK-5587
国际标识:
2023-094AD
轨道中心:
EARTH
卫星名称:
星链-5587
卫星全名:
星链-5587 (STARLINK-5587 )
卫星状态:
在轨 (已飞行1074 天)
发射日期:
2023-07-07 UTC
国别 :
美国 (US)
星等 :
--
Orbit Information
数据来源 国际轨道数据 AOE轨道数据
星历时间 2026-06-15T02:29:02+0800
9小时前
查看轨道信息
2026-06-15T06:00:00+0800
6小时前
查看轨道信息
半长轴 6861.199km 6861.177km
偏心率 0.0001151 0.0002394
轨道倾角 42.999° 42.998°
近地点辐角 272.491° 213.228°
升交点赤经 191.930° 191.107°
平近点角 87.581° 233.508°
近地点 482.272km 481.397km
远地点 483.852km 484.683km
周期 94.267分钟 94.267分钟
每日圈数 15.27576 15.275831
Detailed Information
固有亮度:
5
最大亮度:
2.4
卫星平台:
Starlink v1.5
覆盖范围:
全球
运营商:
太空探索技术公司
运营商所在国:
美国
制造商(研发单位):
太空探索技术公司
制造商所在国:
美国
使用方式:
暂无
Satellite Introduction
星链(Starlink)计划是由太空探索技术公司(SpaceX)提出的一个巨型低轨卫星互联网星座项目,计划在2019年至2024年间在太空搭建由约1.2万颗卫星组成的“星链”网络,其中1584颗将部署在地球上空550千米处的近地轨道,并从2020年开始工作。该卫星仍在工作。
2D Orbit Map
3D Orbit Map
Orbit Altitude Analysis Chart
Orbit Inclination Analysis Chart
Orbit Comprehensive Analysis Chart
View Comprehensive Chart